Location: Newark
(48.8656°N, 2.3211°E)
Time: 03:42:54
(UTC+00:00)

Envisat - Pass Details

Date: 24 February 2019
Orbit: 764 x 766 km, 98.2° (Epoch: 20 March)

Event Time Altitude Azimuth Distance (km) Brightness Sun altitude
Rises 19:43:43 0° 209° (SSW) 3,223 6.4 -23.3°
Reaches altitude 10° 19:46:43 10° 227° (SW) 2,302 5.9 -23.8°
Maximum altitude 19:50:11 18° 271° (W) 1,797 5.7 -24.4°
Drops below altitude 10° 19:53:41 10° 314° (NW) 2,313 6.3 -24.9°
Sets 19:56:43 0° 333° (NNW) 3,245 6.8 -25.4°
